Regional Weather Roundup
Issued by NWS Goodland, KS

Home | Current Version | Previous Version | Graphics & Text | Print | Product List | Glossary On
Versions: 1 2 3 4 5 6 7 8 9 10 11 12 13 14 15 16 17 18 19 20 21 22 23 24 25 26 27 28 29 30 31 32 33 34 35 36 37 38 39 40 41 42 43 44 45 46 47 48 49 50
000
ASUS43 KGLD 181159
RWRGLD

GOODLAND FORECAST AREA HOURLY WEATHER ROUNDUP
NATIONAL WEATHER SERVICE GOODLAND KS
500 AM MST WED JAN 18 2017

...OFFICIAL OBSERVATIONS...

CITY           SKY/WX    TMP DP  RH WIND       PRES   REMARKS
GOODLAND KS    CLOUDY    27  25  92 SW6       29.94F
HILL CITY KS   CLOUDY    32  30  92 CALM      29.99F
IMPERIAL NEB   CLOUDY    23  19  85 W5        29.95S
MCCOOK NEB     CLOUDY    25  24  96 W7        29.96F
AKRON CO       CLOUDY    23  15  71 W14       29.92F WCI  11
BURLINGTON CO  CLOUDY    26  22  84 W10       29.93F WCI  16
LIMON CO       CLOUDY     9   6  88 N5        29.95S
$$

...UNOFFICIAL OBSERVATIONS...

CITY           SKY/WX    TMP DP  RH WIND       PRES   REMARKS
LENORA KS        N/A     27  32 100 CALM        N/A
NORTON KS      CLEAR     28  25  86 SW5       29.97F
SHARON SPRINGS   N/A     28  26  92 SW6         N/A
TRENTON NEB      N/A     27  32 100 CALM        N/A
KIT CARSON CO    N/A     22  20  90 CALM        N/A
YUMA CO        FAIR      14  10  85 W13       29.93S WCI   0
$$



USA.gov is the U.S. government's official web portal to all federal, state and local government web resources and services.